Location: Unspecified
(0.0000°N, 0.0000°E)
Time: 13:37:17
(UTC+00:00)

Transit 2A - Pass Details

Date: 28 November 2019
Orbit: 602 x 957 km, 66.7° (Epoch: 08 December)

Event Time Altitude Azimuth Distance (km) Brightness Sun altitude
Rises 20:48:40 0° 322° (NW) 3,014 - -41.3°
Reaches altitude 10° 20:51:04 10° 312° (NW) 2,153 - -41.9°
Maximum altitude 20:55:26 33° 249° (WSW) 1,246 - -42.8°
Drops below altitude 10° 21:00:15 10° 186° (S) 2,371 - -43.8°
Sets 21:03:02 0° 176° (S) 3,369 - -44.4°
Exits shadow 21:03:05 - 176° (S) 3,389 9.6 -44.5°
